Погода в Чапаеве

Россия / Республика Саха (Якутия)     60°07′40″N   117°07′15″E
темп.,
°C
ветер,
м/с
пор.,
м/с
влажн.,
%
обл.,
%
осадки,
мм/ч
давл.,
гПа
погр.,
м
27 февраля, сб
сб2700:00−22зюз1197100 0.0 102420
03:00−21з2395100 0.0 102480
06:00−21з2693100 0.0 1024287
09:00−21зсз4995100 0.1 1025630
12:00−20зсз61190100 0.3 1026916
15:00−19зсз61082100 0.3 10251394
18:00−21зсз31078100 0.0 10271302
21:00−23з31087100 0.0 1028359
28 февраля, вс
вс2800:00−28з229162 0.0 102919
03:00−30з239345 0.0 103119
06:00−31з229416 0.0 103319
09:00−30зюз239528 0.0 103492
12:00−23з5108094 0.0 10341383
15:00−22з587797 0.1 10321487
18:00−24з2687100 0.0 1033251
21:00−28зюз1292100 0.0 103419
1 марта, пн
пн100:00−31юз129571 0.0 103519
03:00−31юз119682 0.0 103519
06:00−32юз119696 0.0 103519
09:00−32юз119366 0.0 103419
12:00−24ююз128898 0.0 1032297
15:00−22з247598 0.1 10301330
18:00−24юз0086100 0.0 102920
21:00−29вюв119398 0.0 102819
2 марта, вт
вт200:00−31вюв0110081 0.0 102719
03:00−34в0110071 0.0 102619
06:00−34всв0110098 0.0 102519
09:00−33св119998 0.0 102419
12:00−26всв1291100 0.1 1022351
15:00−24в2388100 0.1 1020627
18:00−24в1297100 0.1 102080
21:00−26св1299100 0.3 102222
3 марта, ср
ср300:00−27ссв2299100 0.1 102241
03:00−28с2399100 0.3 1023112
06:00−30с2498100 0.1 1024144
09:00−31ссз2497100 0.3 1026215
12:00−30ссз2495100 0.1 1026337
15:00−27ссз2492100 0.1 1025461
18:00−28ссз2295100 0.0 102633
21:00−33сз1299100 0.0 102919